Back to catalog

STARLINK-37333

AliveCommunicationsVLEO
NORAD 69174·PAYLOAD·🇺🇸 United States

Launched May 21, 2026 from Cape Canaveral Space Force Station

Loading…

Next Passes (next 24 hours)

TLE

FreshSource: CelesTrak SupGP

Epoch: Sep 14, 2026, 16:12 UTC

1 69174C 26111AC  26257.67548611 -.00035491  00000+0 -10485-2 0  2578
2 69174  53.1568  92.7429 0001385  94.1860  43.1720 15.34412482    17

Track STARLINK-37333 in real time with AllMySat

Download on the App Store